[[{"header":{"parameterUnit":"m.s-1","parameterCategory":1,"la1":30.2991,"la2":30.254,"lo1":-89.0895,"lo2":-89.0444,"dy":0.0017,"dx":0.0017,"nx":28,"ny":28,"refTime":"2025-05-15T21:00:00:Z","depth":0,"parameterNumber":2,"parameterNumberName":"U-component_of_WINDS"},"data":[0,0,0,0,0,0,0,0,0,0,0,0,0,0,0,0,0,0,0,0,0,0,0,0,0,0,0,0,0,0,0,0,0,0,0,0,0,0,0,0,0,0,0,0,0,0,0,0,0,0,0,0,0,0,0,0,0,0,0.5612,0.5614,0,0.5801,0.5803,0.5805,0.5908,0.5908,0.5908,0.5909,0.6106,0.611,0.6115,0,0,0,0,0,0,0,0,0,0,0,0,0,0.5344,0.5348,0.5612,0.5614,0.5617,0.5801,0.5803,0.5806,0.5908,0.5908,0.5909,0.5909,0.6104,0.611,0.6116,0,0,0,0,0,0,0,0,0,0,0,0,0,0.5489,0.5349,0.5612,0.569,0.5699,0.58,0.5804,0.5807,0.5908,0.5908,0.5909,0.5909,0.6102,0.6109,0.6117,0.6156,0,0,0.614,0.6143,0,0,0,0,0,0,0,0,0.5481,0.5499,0.5676,0.5684,0.5695,0.5831,0.5781,0.5924,0.5908,0.5828,0.5909,0.5909,0.6014,0.6029,0.6064,0.6165,0.6174,0.614,0.6145,0.6148,0.615,0,0,0,0,0,0,0,0.5471,0.5491,0.5687,0.5678,0.569,0.5717,0.5738,0.5809,0.5917,0.5835,0.5843,0.5864,0.6019,0.6056,0.6069,0.6177,0.614,0.6147,0.6152,0.6154,0.6323,0.6323,0,0,0,0,0,0,0.5447,0.5482,0.5681,0.5693,0.5586,0.5721,0.5745,0.5787,0.5917,0.5937,0.5864,0.5868,0.6043,0.606,0.6076,0.6133,0.6148,0.6155,0.616,0.6323,0.6323,0.6323,0,0,0,0,0,0,0.5441,0.5464,0.5673,0.559,0.5618,0.5726,0.5772,0.5791,0.5828,0.5938,0.5958,0.5881,0.6044,0.6066,0.6136,0.6141,0.6159,0.6165,0.6323,0.6323,0.6323,0.6244,0,0,0,0,0,0,0.5433,0.5461,0.5476,0.5589,0.5622,0.5728,0.5772,0.5794,0.584,0.5848,0.596,0.5979,0.6046,0.6124,0.6143,0.6152,0.6171,0.6323,0.6323,0.6323,0.6247,0.6241,0.6237,0,0,0,0,0,0.5423,0.5447,0.5476,0.55,0.5643,0.5728,0.5747,0.5823,0.584,0.5857,0.5928,0.5975,0.6137,0.613,0.6153,0.6163,0.6323,0.6323,0.6323,0.6249,0.6242,0.6237,0,0,0,0,0,0,0.5332,0.5463,0.5497,0.5557,0.5631,0.5745,0.5768,0.5814,0.5884,0.5889,0.5982,0.6006,0.6068,0.6123,0.6113,0.621,0.6235,0.624,0.6171,0.6166,0.6161,0.6147,0.6178,0,0,0,0,0,0.5318,0.5375,0.5487,0.553,0.5565,0.566,0.57,0.5752,0.5832,0.5864,0.594,0.6017,0.6086,0.6129,0.6198,0.6255,0.6282,0.6274,0.6269,0.6264,0.6267,0.6304,0.6302,0.6323,0.6323,0.6323,0,0,0.5292,0.537,0.5401,0.5513,0.5576,0.5635,0.5685,0.5744,0.5789,0.5873,0.5944,0.6003,0.6095,0.6159,0.6191,0.6207,0.6267,0.6264,0.626,0.6265,0.6303,0.6301,0.6299,0.6323,0.6323,0.6323,0,0,0.5273,0.5337,0.5381,0.5443,0.5538,0.5601,0.5611,0.572,0.5762,0.5834,0.5899,0.5955,0.607,0.6134,0.6181,0.6189,0.6235,0.6209,0.6183,0.6217,0.6215,0.6214,0.6218,0.6218,0.6211,0.6211,0.6211,0,0.5228,0.5317,0.5398,0.5453,0.5502,0.5581,0.5627,0.5684,0.5796,0.5828,0.5844,0.5992,0.606,0.6141,0.6143,0.6178,0.6194,0.6196,0.6209,0.6209,0.6209,0.6214,0.6215,0.6207,0.6208,0.6208,0.6208,0,0.5258,0.5319,0.5343,0.5449,0.5501,0.5551,0.5641,0.5684,0.5732,0.5794,0.5868,0.5952,0.6041,0.6064,0.6112,0.6152,0.6159,0.6191,0.6218,0.6202,0.6208,0.621,0.6202,0.6203,0.6204,0.6205,0,0,0.5185,0.5337,0.5344,0.5394,0.5505,0.5555,0.561,0.5696,0.5731,0.5807,0.5856,0.5953,0.5984,0.6037,0.6094,0.6124,0.6126,0.6152,0.6156,0.6145,0.6177,0.6153,0.6154,0.6158,0.6158,0.6159,0.617,0,0.5183,0.5284,0.5359,0.5432,0.5491,0.5568,0.5616,0.5691,0.5751,0.5811,0.5878,0.5945,0.5979,0.6013,0.6046,0.6118,0.6134,0.6119,0.6206,0.6208,0.618,0.6157,0.6131,0.6138,0.6173,0.6173,0.6174,0,0.5193,0.5266,0.5344,0.5451,0.5479,0.552,0.5606,0.5662,0.5749,0.5791,0.5851,0.591,0.5973,0.5995,0.6085,0.6073,0.6113,0.6154,0.6157,0.6168,0.619,0.6168,0.6142,0.6142,0.6178,0.6178,0.6177,0,0.5133,0.5251,0.5314,0.5354,0.548,0.5508,0.5562,0.5649,0.5697,0.5772,0.5804,0.5886,0.5931,0.5994,0.6074,0.6082,0.6156,0.6184,0.6194,0.6192,0.6206,0.6204,0.6185,0.6231,0.6231,0.6231,0.6231,0,0.5122,0.5168,0.5289,0.5327,0.5381,0.5468,0.552,0.5581,0.5658,0.5711,0.5783,0.5832,0.5934,0.5995,0.6058,0.6124,0.6143,0.618,0.6197,0.6174,0.6169,0.6202,0.6204,0.6231,0.6231,0.6231,0.6231,0,0.5064,0.5147,0.5221,0.5334,0.5364,0.5399,0.5497,0.5539,0.5603,0.567,0.5691,0.5793,0.5869,0.5955,0.606,0.6102,0.6164,0.6187,0.6134,0.6143,0.6149,0.6147,0.6151,0.6157,0.6196,0.6196,0.6196,0,0.5052,0.5089,0.5207,0.5247,0.5299,0.5363,0.5412,0.5501,0.5549,0.5652,0.5681,0.5763,0.5833,0.5951,0.6036,0.6117,0.6143,0.6139,0.6156,0.6133,0.6144,0.6141,0.6146,0.6134,0.6133,0.6132,0.6132,0,0.5021,0.5061,0.5128,0.5211,0.5267,0.5336,0.5409,0.5438,0.5541,0.5592,0.5671,0.5725,0.5833,0.5913,0.6005,0.6063,0.6115,0.6126,0.6133,0.611,0.6078,0.6096,0.6121,0.6125,0.6126,0.6126,0.6127,0.6127,0.4987,0.5024,0.5113,0.5186,0.525,0.5316,0.5361,0.5432,0.5499,0.5593,0.5642,0.572,0.5809,0.5937,0.5994,0.6057,0.6074,0.6084,0.6086,0.6087,0.6081,0.6068,0.6074,0.6075,0.6075,0.6075,0.6075,0,0.4961,0.5023,0.5089,0.5188,0.5247,0.529,0.5373,0.5419,0.5487,0.5565,0.5633,0.5724,0.5803,0.5894,0.598,0.6014,0.604,0.6033,0.6032,0.6044,0.6061,0.6047,0.6011,0.6011,0.6011,0.6011,0.6011,0.6011,0.4954,0.502,0.507,0.5169,0.5231,0.5308,0.5352,0.5414,0.5477,0.5576,0.5642,0.5701,0.5785,0.5877,0.5952,0.5977,0.6006,0.5992,0.6024,0.6038,0.6043,0.6048,0.6036,0.5997,0.5997,0.6003,0.6003,0.6003]},{"header":{"parameterUnit":"m.s-1","parameterCategory":1,"la1":30.2991,"la2":30.254,"lo1":-89.0895,"lo2":-89.0444,"dy":0.0017,"dx":0.0017,"nx":28,"ny":28,"refTime":"2025-05-15T21:00:00:Z","depth":0,"parameterNumber":3,"parameterNumberName":"V-component_of_WINDS"},"data":[0,0,0,0,0,0,0,0,0,0,0,0,0,0,0,0,0,0,0,0,0,0,0,0,0,0,0,0,0,0,0,0,0,0,0,0,0,0,0,0,0,0,0,0,0,0,0,0,0,0,0,0,0,0,0,0,0,0,3.9075,3.9075,0,3.9087,3.9087,3.9087,3.9099,3.9099,3.9099,3.91,3.9108,3.9108,3.9108,0,0,0,0,0,0,0,0,0,0,0,0,0,3.9059,3.906,3.9075,3.9075,3.9075,3.9087,3.9087,3.9087,3.9099,3.9099,3.9099,3.91,3.9108,3.9108,3.9108,0,0,0,0,0,0,0,0,0,0,0,0,0,3.9068,3.906,3.9075,3.9083,3.9083,3.9087,3.9087,3.9087,3.9099,3.9099,3.9099,3.91,3.9108,3.9108,3.9108,3.9103,0,0,3.9108,3.9108,0,0,0,0,0,0,0,0,3.9068,3.9069,3.9081,3.9082,3.9083,3.9092,3.9084,3.9092,3.9099,3.9093,3.91,3.91,3.9102,3.9102,3.9104,3.9103,3.9104,3.9108,3.9108,3.9108,3.9108,0,0,0,0,0,0,0,3.9067,3.9068,3.9079,3.9081,3.9082,3.9085,3.9086,3.9086,3.9096,3.9093,3.9094,3.9096,3.9102,3.9104,3.9104,3.9104,3.9108,3.9108,3.9108,3.9108,3.9101,3.9101,0,0,0,0,0,0,3.9066,3.9068,3.9079,3.908,3.9076,3.9085,3.9086,3.9089,3.9096,3.9097,3.9096,3.9096,3.9104,3.9104,3.9105,3.91,3.9108,3.9108,3.9108,3.9101,3.9101,3.9101,0,0,0,0,0,0,3.9065,3.9067,3.9078,3.9074,3.9076,3.9085,3.9087,3.9089,3.909,3.9097,3.9099,3.9096,3.9104,3.9104,3.9104,3.9101,3.9108,3.9108,3.9102,3.9101,3.9101,3.9091,0,0,0,0,0,0,3.9065,3.9066,3.9065,3.9074,3.9076,3.9078,3.9087,3.9089,3.9091,3.9092,3.9098,3.9099,3.9104,3.9104,3.9104,3.9101,3.9108,3.9102,3.9101,3.9101,3.9092,3.909,3.9089,0,0,0,0,0,3.9064,3.9061,3.9065,3.9066,3.9075,3.9078,3.9079,3.9086,3.909,3.9089,3.9094,3.9099,3.9101,3.9104,3.9104,3.9101,3.9102,3.9102,3.9101,3.9092,3.9091,3.9089,0,0,0,0,0,0,3.9049,3.9062,3.9067,3.9066,3.9071,3.908,3.9078,3.9084,3.9087,3.9088,3.9095,3.9097,3.9095,3.9098,3.91,3.9097,3.9102,3.9102,3.9095,3.9094,3.9093,3.9092,3.9108,0,0,0,0,0,3.9046,3.9049,3.9059,3.9058,3.906,3.9069,3.9071,3.9076,3.9081,3.9083,3.9087,3.9091,3.9093,3.9094,3.9095,3.9092,3.9094,3.909,3.9089,3.9088,3.9088,3.9087,3.9086,3.9099,3.9099,3.9099,0,0,3.9039,3.9046,3.9047,3.9055,3.906,3.9062,3.9071,3.9072,3.9073,3.9082,3.9083,3.9087,3.9091,3.909,3.9089,3.9092,3.9085,3.9088,3.9087,3.9087,3.9086,3.9085,3.9084,3.9099,3.9099,3.9099,0,0,3.9028,3.9034,3.9034,3.9039,3.9046,3.9052,3.9052,3.9061,3.9064,3.9065,3.9073,3.9074,3.9076,3.908,3.9082,3.9074,3.9078,3.9074,3.9068,3.9067,3.9066,3.9065,3.9063,3.9062,3.9073,3.9073,3.9073,0,3.9018,3.9022,3.9032,3.9034,3.9037,3.9048,3.9048,3.9052,3.9059,3.906,3.9064,3.9068,3.9072,3.9072,3.907,3.9071,3.9071,3.9073,3.9066,3.9065,3.9064,3.9062,3.9061,3.9073,3.9073,3.9073,3.9073,0,3.901,3.9013,3.9012,3.9021,3.9024,3.9025,3.9034,3.9036,3.9042,3.9047,3.9048,3.9053,3.9057,3.9058,3.9062,3.9058,3.906,3.9064,3.907,3.9062,3.906,3.9059,3.9072,3.9072,3.9072,3.9073,0,0,3.8988,3.9004,3.9004,3.9008,3.9018,3.9021,3.9022,3.9027,3.9029,3.9034,3.9035,3.9038,3.9043,3.9045,3.905,3.9049,3.9044,3.9054,3.9054,3.9052,3.9041,3.9037,3.9036,3.9047,3.9047,3.9047,3.904,0,3.8978,3.8983,3.8993,3.8994,3.8997,3.9008,3.9009,3.9015,3.9021,3.9024,3.9029,3.9032,3.9037,3.9039,3.9039,3.9044,3.9041,3.9045,3.9048,3.9048,3.9046,3.9035,3.9031,3.9025,3.904,3.9039,3.9039,0,3.8967,3.8974,3.8976,3.8988,3.8989,3.899,3.8997,3.9,3.9007,3.9011,3.9015,3.9021,3.9022,3.9028,3.903,3.9032,3.9034,3.9037,3.9037,3.9037,3.9043,3.9035,3.9023,3.9022,3.9038,3.9038,3.9038,0,3.8952,3.8961,3.8964,3.8967,3.8981,3.8981,3.8987,3.8994,3.8997,3.9003,3.9005,3.9009,3.9012,3.9015,3.9022,3.9026,3.9024,3.903,3.9027,3.9027,3.9026,3.9025,3.9013,3.9027,3.9027,3.9027,3.9027,0,3.894,3.8941,3.8957,3.8959,3.896,3.8972,3.8972,3.8978,3.8985,3.8988,3.8997,3.8999,3.9009,3.9012,3.9017,3.9018,3.9019,3.9022,3.9024,3.9022,3.9021,3.9022,3.9023,3.9026,3.9027,3.9027,3.9027,0,3.8922,3.8933,3.8937,3.8951,3.8954,3.8954,3.8965,3.8967,3.8974,3.8977,3.8979,3.8989,3.8993,3.9001,3.9007,3.9011,3.9011,3.9013,3.9009,3.901,3.9007,3.9007,3.8995,3.8994,3.9008,3.9008,3.9007,0,3.8914,3.8915,3.893,3.8933,3.8939,3.8943,3.8948,3.8959,3.8962,3.8972,3.8972,3.8977,3.8982,3.8988,3.8995,3.9,3.9003,3.8998,3.9003,3.9002,3.9003,3.9003,3.9003,3.8997,3.8997,3.8997,3.8997,0,3.8898,3.8904,3.8911,3.8919,3.8924,3.8931,3.8938,3.894,3.8953,3.8956,3.8962,3.8966,3.8973,3.8978,3.8984,3.8988,3.8994,3.8995,3.8995,3.8993,3.899,3.8992,3.9006,3.8995,3.8995,3.8995,3.8996,3.8996,3.8885,3.8888,3.8899,3.8906,3.8913,3.892,3.8923,3.8931,3.8936,3.8944,3.895,3.8955,3.8963,3.8972,3.8977,3.898,3.8983,3.8982,3.8982,3.8982,3.8981,3.899,3.8981,3.8981,3.8981,3.8981,3.8981,0,3.887,3.8879,3.8885,3.8896,3.8902,3.8909,3.8918,3.8922,3.8927,3.8934,3.894,3.8946,3.8952,3.896,3.8966,3.8968,3.8971,3.8969,3.8969,3.897,3.8978,3.8978,3.8966,3.8966,3.8966,3.8966,3.8966,3.8966,3.8863,3.8868,3.8876,3.8884,3.8892,3.8899,3.8903,3.8909,3.8916,3.8924,3.8929,3.8935,3.8943,3.895,3.8955,3.8958,3.8959,3.8957,3.896,3.8967,3.8969,3.897,3.897,3.8957,3.8957,3.8951,3.8951,3.8951]}]]